Regional Weather Roundup
Issued by NWS Grand Forks, ND

Home | Current Version | Previous Version | Text Only | Print | Product List | Glossary On
Versions: 1 2 3 4 5 6 7 8 9 10 11 12 13 14 15 16 17 18 19 20 21 22 23 24 25 26 27 28 29 30 31 32 33 34 35 36 37 38 39 40 41 42 43 44 45 46 47 48 49 50
000
ASUS43 KFGF 260831
RWRFGF
PRAIRIE TO PINES  WEATHER ROUNDUP
NATIONAL WEATHER SERVICE EASTERN NORTH DAKOTA/GRAND FORKS ND
300 AM CDT THU APR 26 2018

 **SATELLITE DATA USED TO AUGMENT SKY COVER AT AUTOMATED STATIONS**
 *****  WEATHER ACROSS EASTERN NORTH DAKOTA  *****

CITY           SKY/WX    TMP DP  RH WIND       PRES   REMARKS
GRAND FORKS    MOCLDY    44  33  65 N15       29.86R
GRAND FRKS AFB FAIR      46  32  60 N16       29.87R
GRAND FRKS NWS   N/A     46  32  59 N13       29.84R
DEVILS LAKE    FAIR      40  28  62 N14       29.94R
FARGO          FAIR      44  36  73 N14       29.80R
WAHPETON ARPT  FAIR      41  32  70 S5        29.80R
$$

 ***** WEATHER ACROSS CENTRAL AND WESTERN NORTH DAKOTA  *****

CITY           SKY/WX    TMP DP  RH WIND       PRES   REMARKS
BISMARCK       FAIR      48  32  53 N12       30.00R
MINOT          FAIR      42  33  70 W12       30.01R
JAMESTOWN      FAIR      43  33  68 N13       29.89R
MINOT AFB      FAIR      33  29  87 NW10      30.01R WCI  25
GARRISON         N/A     37  32  82 NW9       30.02R
WILLISTON      FAIR      38  30  73 CALM      30.10R
DICKINSON      FAIR      40  31  70 NW8       30.05R
HETTINGER      FAIR      41  31  67 N10       30.07R
$$

 *****  OTHER AIRPORT OBSERVATIONS IN OUR AREA  *****

CITY           SKY/WX    TMP DP  RH WIND       PRES   REMARKS
WALHALLA       FAIR      41  30  65 NW13      29.93R
GRAFTON AIRPOR FAIR      43  32  65 N15       29.91R
VALLEY CITY AR CLOUDY    45  32  61 N16G22    29.88R
CANDO          FAIR      36  27  69 NW9       29.98R
CAVALIER APRT    N/A     41  30  65 N9G16     29.92R
GWINNER          N/A     45  37  76 W10       29.82R
ROLLA          FAIR      36  27  69 N10       29.98R
 ***** THE ABOVE OBSERVATIONS ARE NON NWS ARE NOT QUALITY
       CONTROLLED AND MAY MIS-REPORT RAIN FOR SNOW...
$$

  *****  WEATHER ACROSS NORTHERN MINNESOTA  *****

CITY           SKY/WX    TMP DP  RH WIND       PRES   REMARKS
FLAG ISLAND    FAIR      43  34  70 NW9       29.81R
WARROAD        FAIR      45  36  70 N10       29.83R
ROSEAU         FAIR      45  37  76 N9        29.84R
HALLOCK        FAIR      41  28  60 N10       29.89R
THF RVR FALLS  MOCLDY    47  33  58 N16       29.82R
BAUDETTE       MOCLDY    44  35  70 N17G30    29.77R
WASKISH        FAIR      41  32  70 W8        29.77F
CROOKSTON      FAIR      43  34  70 N14       29.84R
STEPHEN NDAWN    N/A     45  28  53 N8          N/A
GREENBUSH NDAW   N/A     41  34  75 NW9         N/A
$$
  *****  WEATHER ACROSS CENTRAL AND WEST MINNESOTA  *****

CITY           SKY/WX    TMP DP  RH WIND       PRES   REMARKS
FOSSTON        FAIR      37  30  75 CALM      29.82R
BEMIDJI        FAIR      42  31  65 W3        29.77F
PARK RAPIDS    FAIR      40  31  70 S7        29.79F
ELBOW LAKE     FAIR      42  34  75 S12       29.81F
WADENA         FAIR      39  30  70 S6        29.79F
DETROIT LAKES  FAIR      46  32  57 CALM      29.80R
MOORHEAD       FAIR      41  36  81 CALM      29.80F
FERGUS FALLS   FAIR      41  34  75 S7        29.78F
MORRIS MN      FAIR      39  36  87 SE8       29.81F
STAPLES        FAIR      37  30  75 S6        29.81F
$$
  *****  WEATHER ELSEWHERE ACROSS MINNESOTA  *****

CITY           SKY/WX    TMP DP  RH WIND       PRES   REMARKS
DULUTH         FAIR      42  25  50 SW9       29.82F
INTRNTL FALLS  FAIR      43  29  57 SW6       29.74F
ELY            FAIR      41  23  48 SW7       29.79F
CLOQUET        FAIR      41  21  45 SW6       29.83F
WHEATON        FAIR      43  34  70 S8        29.81S
BRAINERD       FAIR      43  29  57 S8        29.82F
HIBBING        FAIR      32  23  69 S3        29.80F
ALEXANDRIA     FAIR      46  33  60 SW10      29.82F
SAINT CLOUD    FAIR      41  33  73 S8        29.85F
MINNEAPOLIS    CLOUDY    47  34  60 SW7       29.90F
$$

  *****  WEATHER ACROSS SOUTH DAKOTA  *****

CITY           SKY/WX    TMP DP  RH WIND       PRES   REMARKS
SIOUX FALLS    FAIR      48  31  51 SW9       29.90F
BROOKINGS      FAIR      44  33  65 S13       29.86F
WATERTOWN      FAIR      40  33  76 S8        29.83F
HURON          FAIR      46  34  62 S14       29.83F
SISSETON         N/A     52  32  46 SW26G36   29.75F
ABERDEEN       FAIR      37  34  89 S8        29.82S
MITCHELL       FAIR      47  34  60 S9        29.87F
PIERRE         MOCLDY    52  33  48 NW21      29.86R
MOBRIDGE       FAIR      50  36  58 N20G31    29.89R
RAPID CITY     FAIR      50  31  48 N28G37    30.04R
$$

  *****  SOME WEATHER IN NEARBY STATES *****

CITY           SKY/WX    TMP DP  RH WIND       PRES   REMARKS
GLASGOW MT     FAIR      39  29  67 NW8       30.15R
GREAT FALLS MT FAIR      39  30  70 S12       30.23S
CHEYENNE WY    FAIR      45  24  43 N24G35    30.09R
SCOTTSBLUFF NE FAIR      53  30  41 NW15      30.03R
OMAHA NE       MOCLDY    45  36  70 SE3       29.97F
DES MOINES IA  CLOUDY    47  31  53 CALM      29.96F
DAVENPORT IA   FAIR      40  32  73 SE10      29.97F
CHICAGO IL     FAIR      37  29  72 W3        29.96F
EAU CLAIRE WI  FAIR      36  28  73 CALM      29.90F
LA CROSSE WI   FAIR      42  34  73 SE6       29.93F
$$

  *****  SOME NATIONAL WEATHER *****

CITY           SKY/WX    TMP DP  RH WIND       PRES   REMARKS
LA GUARDIA NY  CLOUDY    57  54  89 NW6       29.58F
RALEIGH NC     FAIR      50  50 100 CALM      29.83R
ATLANTA GA     MOCLDY    52  50  93 W7        29.86F
NEW ORLEANS LA MOCLDY    67  65  93 SW7       29.88F
OKLAHOMA CITY  FAIR      42  39  89 NW5       30.03F
ALBUQUERQUE NM FAIR      58  28  32 S5        30.08F
SALT LAKE CITY FAIR      52  38  58 SW6       30.14R
LOS ANGELES CA CLOUDY    56  52  86 W8        30.05S
BOISE ID       FAIR      51  34  52 SE3       30.12R
SEATTLE WA     FAIR      61  37  41 NE12      30.05F
$$

*** WEATHER ACROSS MANITOBA...SASKATCHEWAN AND ONTARIO ***
                ***ONTARIO***

CITY           SKY/WX    TMP DP  RH WIND       PRES   REMARKS
GERALDTON      MOCLDY    36  25  64 SW7       29.73F
THUNDER BAY    PTCLDY    28  25  86 CALM      29.80F
SIOUX LOOKOUT  CLOUDY    41  36  81 N9        29.73R
TORONTO        LGT RAIN  39  36  87 NW20      29.78R
BIG TROUT LK   FLURRIES  28  25  86 NE9G20    29.83R WCI  20
PICKLE LAKE    NOT AVBL
DRYDEN         LGT RAIN  43  36  75 N10G20    29.75R
KENORA         MOCLDY    43  36  75 N8        29.79R
$$
                *** MANITOBA***

CITY           SKY/WX    TMP DP  RH WIND       PRES   REMARKS
BRANDON        CLEAR     34  27  75 N9        30.01R
DAUPHIN        CLEAR     28  25  86 W7        30.04R WCI  21
ISLAND LAKE    FLURRIES  25  21  86 N12       29.98R WCI  14
PILOT MOUND      N/A     37  27  65 N10         N/A
THE PAS        CLEAR     28  23  80 CALM      30.03R
THOMPSON       PTCLDY    21  16  79 E5        30.03S WCI  15
WINNIPEG       CLEAR     41  28  60 N14       29.92R
LYNN LAKE      MOCLDY    21  21 100 SE7       29.96F WCI  13
CHURCHILL      CLEAR      9   3  78 N8        30.09S WCI  -4
GILLAM         FLURRIES  10   5  79 N7        30.08R WCI   0
$$
                ***SASKATCHEWAN***

CITY           SKY/WX    TMP DP  RH WIND       PRES   REMARKS
ESTEVAN        CLEAR     28  25  86 NW8       30.07R WCI  20
KINDERSLEY     CLEAR     34  27  75 SW7       30.11S
LLOYDMINSTER   CLEAR     41  28  60 SW10      30.03S
PRINCE ALBERT  CLEAR     30  23  74 CALM      30.04F
REGINA         CLEAR     28  23  80 W6        30.10R WCI  22
YORKTON        CLEAR     36  27  69 NW5       30.05R
N. BATTLEFORD  CLEAR     36  25  64 S5        30.06F
LA RONGE       CLOUDY    34  27  75 S5        29.94F
SASKATOON      CLEAR     34  28  80 SW6       30.08S
SWIFT CURRENT  CLEAR     34  27  75 SW12      30.13R
$$
NOTE: THESE ARE AUTOMATED STATIONS WITH LIMITED QUALITY CONTROL
      "FAIR" INDICATES FEW OR NO CLOUDS BELOW 12,000 FEET WITH NO
      SIGNIFICANT WEATHER AND/OR OBSTRUCTIONS TO VISIBILITY.
      SKY/WX - SKY CONDITION AND SIGNIFICANT WEATHER.
      TMP - AIR TEMPERATURE.    DP   - DEWPOINT TEMPERATURE.
      RH  - RELATIVE HUMIDITY.  PRES - PRESSURE.
      HX  - HEAT INDEX.         WCI  - WIND CHILL INDEX.
$



USA.gov is the U.S. government's official web portal to all federal, state and local government web resources and services.